Show Low, AZ

6:40 PM MST on August 30, 2016 (GMT -0700)
Show Low Municipal

Weather History for KSOW - April, 2013

Change the Weather History Date:

Friday, April 19, 2013

  Actual Average Record
Temperature  
Mean Temperature 41 °F -  
Max Temperature 59 °F 60 °F 81 °F (1989)
Min Temperature 23 °F 41 °F 23 °F (2013)
Degree Days  
Heating Degree Days 24    
Moisture  
Dew Point 4 °F    
Average Humidity 23    
Maximum Humidity 54    
Minimum Humidity 9    
Precipitation  
Precipitation 0.00 in - - ()
Sea Level Pressure  
Sea Level Pressure 30.21 in    
Wind  
Wind Speed 8 mph (South)    
Max Wind Speed 17 mph    
Max Gust Speed 22 mph    
Visibility 10 miles    
Events      
Averages and records for this station are not official NWS values.
T = Trace of Precipitation, MM = Missing Value Source: NWS Daily Summary

Daily Weather History Graph

Daily Weather History Graph

Search for Another Location

Airport or City:

Trip Planner

Search our weather history database for the weather conditions in past years. The results will help you decide how hot, cold, wet, or windy it might be!

Date:

Astronomy

Apr. 19, 2013 Rise Set
Actual Time 5:43 AM MST 6:55 PM MST
Civil Twilight 5:17 AM MST 7:21 PM MST
Nautical Twilight 4:46 AM MST 7:52 PM MST
Astronomical Twilight 4:14 AM MST 8:24 PM MST
Moon 12:58 PM MST (4/19) 1:44 AM MST (4/19)
Length of Visible Light 14h 03m
Length of Day
13h 11m
Waxing Gibbous, 62% of the Moon is Illuminated
Apr 19
Waxing Gibbous
Apr 25
Full
May 2
Last Quarter
May 9
New
May 17
First Quarter

Hourly Weather History & Observations

Time (MST) Temp. Windchill Dew Point Humidity Pressure Visibility Wind Dir Wind Speed Gust Speed Precip Events Conditions
12:15 AM 28.4 °F 21.2 °F 5.0 °F 37% 30.29 in 10.0 mi ENE 6.9 mph - N/A   Clear
12:35 AM 26.6 °F 18.2 °F 5.0 °F 40% 30.28 in 10.0 mi ENE 8.1 mph - N/A   Clear
12:55 AM 26.6 °F 20.0 °F 5.0 °F 40% 30.28 in 10.0 mi ENE 5.8 mph - N/A   Clear
1:15 AM 26.6 °F 19.1 °F 3.2 °F 37% 30.27 in 10.0 mi ENE 6.9 mph - N/A   Clear
1:35 AM 28.4 °F 18.5 °F 5.0 °F 37% 30.26 in 10.0 mi East 11.5 mph - N/A   Clear
1:55 AM 28.4 °F 19.1 °F 3.2 °F 34% 30.26 in 10.0 mi East 10.4 mph - N/A   Clear
2:15 AM 28.4 °F 18.5 °F 3.2 °F 34% 30.26 in 10.0 mi East 11.5 mph - N/A   Clear
2:35 AM 28.4 °F 18.5 °F 3.2 °F 34% 30.26 in 10.0 mi ENE 11.5 mph - N/A   Clear
2:55 AM 28.4 °F 19.1 °F 3.2 °F 34% 30.26 in 10.0 mi ENE 10.4 mph - N/A   Clear
3:15 AM 28.4 °F 20.4 °F 3.2 °F 34% 30.26 in 10.0 mi East 8.1 mph - N/A   Clear
3:35 AM 28.4 °F 22.2 °F 1.4 °F 31% 30.27 in 10.0 mi ENE 5.8 mph - N/A   Clear
3:55 AM 28.4 °F 24.6 °F 1.4 °F 31% 30.27 in 10.0 mi NE 3.5 mph - N/A   Clear
4:15 AM 28.4 °F 23.3 °F 1.4 °F 31% 30.27 in 10.0 mi ENE 4.6 mph - N/A   Clear
4:35 AM 26.6 °F - 3.2 °F 37% 30.28 in 10.0 mi Calm Calm - N/A   Clear
4:55 AM 26.6 °F 22.6 °F 1.4 °F 34% 30.28 in 10.0 mi North 3.5 mph - N/A   Clear
5:15 AM 26.6 °F - 1.4 °F 34% 30.27 in 10.0 mi Calm Calm - N/A   Clear
5:35 AM 23.0 °F 18.4 °F 6.8 °F 50% 30.28 in 10.0 mi WSW 3.5 mph - N/A   Clear
5:55 AM 23.0 °F 18.4 °F 6.8 °F 50% 30.29 in 10.0 mi WSW 3.5 mph - N/A   Clear
6:15 AM 23.0 °F 18.4 °F 8.6 °F 54% 30.29 in 10.0 mi WSW 3.5 mph - N/A   Clear
6:35 AM 24.8 °F 20.5 °F 8.6 °F 50% 30.30 in 10.0 mi West 3.5 mph - N/A   Clear
6:55 AM 28.4 °F - 8.6 °F 43% 30.30 in 10.0 mi Calm Calm - N/A   Clear
7:15 AM 32.0 °F 28.7 °F 8.6 °F 38% 30.30 in 10.0 mi NNE 3.5 mph - N/A   Clear
7:35 AM 35.6 °F 31.7 °F 10.4 °F 35% 30.29 in 10.0 mi NNE 4.6 mph - N/A   Clear
7:55 AM 41.0 °F 35.2 °F 3.2 °F 21% 30.29 in 10.0 mi ENE 9.2 mph 18.4 mph N/A   Clear
8:15 AM 42.8 °F 36.2 °F 3.2 °F 19% 30.30 in 10.0 mi ENE 12.7 mph - N/A   Clear
8:35 AM 44.6 °F 38.1 °F 5.0 °F 20% 30.29 in 10.0 mi NE 13.8 mph - N/A   Clear
8:55 AM 44.6 °F 39.7 °F 5.0 °F 20% 30.29 in 10.0 mi NE 9.2 mph - N/A   Clear
9:15 AM 46.4 °F 41.9 °F 5.0 °F 18% 30.28 in 10.0 mi NE 9.2 mph 18.4 mph N/A   Clear
9:35 AM 46.4 °F 41.9 °F 1.4 °F 16% 30.28 in 10.0 mi NE 9.2 mph - N/A   Clear
9:55 AM 46.4 °F 43.5 °F 1.4 °F 16% 30.28 in 10.0 mi NNE 5.8 mph - N/A   Clear
10:15 AM 48.2 °F - 1.4 °F 15% 30.27 in 10.0 mi NW 4.6 mph - N/A   Clear
10:35 AM 48.2 °F - 1.4 °F 15% 30.27 in 10.0 mi NNW 6.9 mph - N/A   Clear
10:55 AM 50.0 °F - 1.4 °F 14% 30.27 in 10.0 mi West 4.6 mph - N/A   Clear
11:15 AM 50.0 °F - 1.4 °F 14% 30.26 in 10.0 mi Calm Calm - N/A   Clear
11:35 AM 51.8 °F - 1.4 °F 13% 30.26 in 10.0 mi WNW 8.1 mph - N/A   Clear
11:55 AM 51.8 °F - 3.2 °F 14% 30.25 in 10.0 mi ESE 3.5 mph - N/A   Clear
12:15 PM 53.6 °F - 3.2 °F 13% 30.24 in 10.0 mi West 6.9 mph - N/A   Clear
12:35 PM 53.6 °F - 5.0 °F 14% 30.23 in 10.0 mi West 10.4 mph - N/A   Clear
12:55 PM 55.4 °F - 6.8 °F 14% 30.22 in 10.0 mi NNW 4.6 mph - N/A   Clear
1:15 PM 55.4 °F - 5.0 °F 13% 30.20 in 10.0 mi West 10.4 mph 16.1 mph N/A   Clear
1:35 PM 59.0 °F - 5.0 °F 12% 30.20 in 10.0 mi SW 12.7 mph 21.9 mph N/A   Clear
1:55 PM 57.2 °F - 5.0 °F 12% 30.19 in 10.0 mi SW 9.2 mph - N/A   Clear
2:15 PM 59.0 °F - 5.0 °F 12% 30.19 in 10.0 mi SW 12.7 mph 18.4 mph N/A   Clear
2:35 PM 59.0 °F - 5.0 °F 12% 30.18 in 10.0 mi SW 6.9 mph 16.1 mph N/A   Clear
2:55 PM 59.0 °F - 5.0 °F 12% 30.16 in 10.0 mi SSW 11.5 mph - N/A   Clear
3:15 PM 59.0 °F - 5.0 °F 12% 30.15 in 10.0 mi SW 16.1 mph 20.7 mph N/A   Clear
3:35 PM 59.0 °F - 3.2 °F 11% 30.14 in 10.0 mi SSW 16.1 mph - N/A   Clear
3:55 PM 59.0 °F - 1.4 °F 10% 30.14 in 10.0 mi SW 12.7 mph 19.6 mph N/A   Clear
4:15 PM 59.0 °F - 3.2 °F 11% 30.13 in 10.0 mi SW 12.7 mph 20.7 mph N/A   Clear
4:35 PM 59.0 °F - 1.4 °F 10% 30.12 in 10.0 mi SSW 15.0 mph - N/A   Clear
4:55 PM 59.0 °F - 1.4 °F 10% 30.13 in 10.0 mi SW 12.7 mph - N/A   Clear
5:15 PM 59.0 °F - -0.4 °F 9% 30.12 in 10.0 mi SSW 17.3 mph 21.9 mph N/A   Clear
5:35 PM 57.2 °F - -0.4 °F 10% 30.12 in 10.0 mi SW 16.1 mph 20.7 mph N/A   Clear
5:55 PM 55.4 °F - -0.4 °F 10% 30.12 in 10.0 mi SSW 13.8 mph - N/A   Clear
6:15 PM 53.6 °F - 3.2 °F 13% 30.12 in 10.0 mi SSW 12.7 mph - N/A   Clear
6:35 PM 53.6 °F - 5.0 °F 14% 30.11 in 10.0 mi SSW 10.4 mph - N/A   Clear
6:55 PM 51.8 °F - 6.8 °F 16% 30.11 in 10.0 mi SSW 10.4 mph - N/A   Clear
7:15 PM 50.0 °F - 6.8 °F 17% 30.11 in 10.0 mi SSW 9.2 mph - N/A   Clear
7:35 PM 50.0 °F - 6.8 °F 17% 30.11 in 10.0 mi South 8.1 mph - N/A   Clear
7:55 PM 46.4 °F 41.9 °F 8.6 °F 22% 30.11 in 10.0 mi South 9.2 mph - N/A   Clear
8:15 PM 46.4 °F 41.9 °F 6.8 °F 20% 30.11 in 10.0 mi South 9.2 mph - N/A   Clear
8:35 PM 44.6 °F 40.7 °F 6.8 °F 21% 30.12 in 10.0 mi South 6.9 mph - N/A   Clear
8:55 PM 42.8 °F 38.0 °F 6.8 °F 23% 30.12 in 10.0 mi South 8.1 mph - N/A   Clear
9:15 PM 42.8 °F 37.5 °F 6.8 °F 23% 30.12 in 10.0 mi South 9.2 mph - N/A   Clear
9:35 PM 42.8 °F 37.5 °F 5.0 °F 21% 30.12 in 10.0 mi South 9.2 mph - N/A   Clear
9:55 PM 41.0 °F 35.2 °F 5.0 °F 23% 30.12 in 10.0 mi South 9.2 mph - N/A   Clear
10:15 PM 41.0 °F 34.7 °F 5.0 °F 23% 30.11 in 10.0 mi South 10.4 mph - N/A   Clear
10:35 PM 41.0 °F 35.2 °F 3.2 °F 21% 30.11 in 10.0 mi South 9.2 mph - N/A   Clear
10:55 PM 41.0 °F 33.9 °F 3.2 °F 21% 30.10 in 10.0 mi South 12.7 mph - N/A   Clear
11:15 PM 41.0 °F 34.7 °F 3.2 °F 21% 30.10 in 10.0 mi South 10.4 mph - N/A   Clear
11:35 PM 41.0 °F 33.9 °F 3.2 °F 21% 30.10 in 10.0 mi South 12.7 mph - N/A   Clear
11:55 PM 41.0 °F 33.9 °F 1.4 °F 19% 30.09 in 10.0 mi South 12.7 mph - N/A   Clear